Regional Weather Roundup
Issued by NWS

Home | Current Version | Previous Version | Graphics & Text | Print | Product List | Glossary On
Versions: 1 2 3 4 5 6 7 8 9 10 11 12 13 14 15 16 17 18 19 20 21 22 23 24 25 26 27 28 29 30 31 32 33 34 35 36 37 38 39 40 41 42 43 44 45 46 47 48 49 50
000
ASUS43 KLSX 200707
RWRMO

WEATHER SUMMARY FOR MISSOURI
NATIONAL WEATHER SERVICE SPRINGFIELD MO
200 AM CDT MON OCT 20 2014

NOTE: "FAIR" INDICATES FEW OR NO CLOUDS BELOW 12,000 FEET WITH NO
       SIGNIFICANT WEATHER AND/OR OBSTRUCTIONS TO VISIBILITY.
       CURRENT SKY AND/OR WEATHER CONDITIONS ARE NOT AVAILABLE FOR
       CHILLICOTHE AND FARMINGTON.

MOZ001>031-035>038-043-044-053-054-200800-
...NORTHERN AND WESTERN MISSOURI...

CITY           SKY/WX    TMP DP  RH WIND       PRES   REMARKS
KANSAS CTY INT FAIR      53  50  89 SW7       30.01R
KANSAS C DTWN  FAIR      58  51  78 SW6       30.00S
LEE`S SUMMIT   FAIR      54  50  86 SW7       30.01S
ST JOSEPH      FAIR      49  46  90 CALM      30.00S
CHILLICOTHE      N/A     56  50  80 SW5       29.99F
KIRKSVILLE     FAIR      56  50  80 SW10      29.96F

$$
MOZ066>068-077>081-088>096-101>105-200800-
...SOUTHWEST MISSOURI...

CITY           SKY/WX    TMP DP  RH WIND       PRES   REMARKS
SPRINGFIELD    CLOUDY    54  50  86 S5        30.05F
JOPLIN         CLOUDY    58  52  80 SW8       30.05F

$$
MOZ032>034-039>042-045>050-055>058-069>072-200800-
...CENTRAL MISSOURI...

CITY           SKY/WX    TMP DP  RH WIND       PRES   REMARKS
COLUMBIA       FAIR      50  48  93 S7        30.01F
JEFFERSON CITY FAIR      52  47  83 SE3       30.01F
ROLLA          CLOUDY    52  46  80 SW10      30.02F
SEDALIA        FAIR      55  50  83 SW8       30.01F
WHITEMAN AFB   FAIR      55  51  85 SW9       30.00F
OSAGE BEACH    CLOUDY    54  46  76 CALM      30.03F

$$
MOZ051-052-059>065-200800-
...EAST CENTRAL MISSOURI...

CITY           SKY/WX    TMP DP  RH WIND       PRES   REMARKS
ST LOUIS INTL  MOCLDY    58  46  64 SW10      30.00F
SPIRIT OF STL  CLOUDY    56  47  71 SW8       30.00F
ST CHARLES     CLOUDY    55  48  77 SW5       29.99F

$$
MOZ072>076-082>087-097>100-106>115-200800-
...SOUTH CENTRAL AND SOUTHEAST MISSOURI...

CITY           SKY/WX    TMP DP  RH WIND       PRES   REMARKS
CAPE GIRARDEAU FAIR      48  46  93 CALM      30.06F
FARMINGTON     MOCLDY    52  46  82 S5        30.06F
POPLAR BLUFF   FAIR      49  46  90 CALM      30.06F
WEST PLAINS    CLOUDY    53  46  77 SW5       30.07F HAZE

$$


USA.gov is the U.S. government's official web portal to all federal, state and local government web resources and services.